Location: Wanzleben
(52.0609°N, 11.4408°E)
Time: 00:38:58
(UTC+00:00)

KORONAS-FOTON - Pass Details

Date: 18 September 2020
Orbit: 506 x 531 km, 82.4° (Epoch: 23 October)

Event Time Altitude Azimuth Distance (km) Brightness Sun altitude
Rises 19:19:07 0° 348° (NNW) 2,689 8.0 -18.2°
Reaches altitude 10° 19:21:16 10° 348° (NNW) 1,795 7.1 -18.5°
Maximum altitude 19:25:13 84° 263° (W) 543 3.8 -19.0°
Enters shadow 19:26:47 35° 175° (S) 867 4.6 -19.2°
